Ahmedabad, India

5:49 PM IST on July 23, 2017 (GMT +0530)
Ahmedabad

Weather History for VAAH - March, 2013

Change the Weather History Date:

Saturday, March 9, 2013

  Actual Average Record
Temperature  
Mean Temperature 81 °F -  
Max Temperature 96 °F 95 °F 98 °F (2004)
Min Temperature 66 °F 69 °F 60 °F (1998)
Cooling Degree Days 16    
Growing Degree Days 31 (Base 50)    
Moisture  
Dew Point 44 °F    
Average Humidity 29    
Maximum Humidity 53    
Minimum Humidity 6    
Precipitation  
Precipitation 0.00 in 0.00 in - ()
Sea Level Pressure  
Sea Level Pressure 29.85 in    
Wind  
Wind Speed 3 mph ()    
Max Wind Speed 10 mph    
Max Gust Speed -    
Visibility 2.7 miles    
Events      
Averages and records for this station are not official NWS values.
T = Trace of Precipitation, MM = Missing Value Source: Averaged Metar Reports

Daily Weather History Graph

Daily Weather History Graph

Search for Another Location

Airport or City:

Trip Planner

Search our weather history database for the weather conditions in past years. The results will help you decide how hot, cold, wet, or windy it might be!

Date:

Astronomy

Mar. 09, 2013 Rise Set
Actual Time 6:54 AM IST 6:46 PM IST
Civil Twilight 6:31 AM IST 7:08 PM IST
Nautical Twilight 6:05 AM IST 7:34 PM IST
Astronomical Twilight 5:39 AM IST 8:00 PM IST
Moon 4:45 AM IST (3/9) 4:30 PM IST (3/9)
Length of Visible Light 12h 37m
Length of Day
11h 52m
Waning Crescent, 8% of the Moon is Illuminated
Mar 9
Waning Crescent
Mar 12
New
Mar 19
First Quarter
Mar 27
Full
Apr 3
Last Quarter

Hourly Weather History & Observations

Time (IST) Temp. Dew Point Humidity Pressure Visibility Wind Dir Wind Speed Gust Speed Precip Events Conditions
12:10 AM 73.4 °F 55.4 °F 53% 29.89 in 2.5 mi Variable 2.3 mph - N/A   Smoke
12:40 AM 73.4 °F 51.8 °F 47% 29.89 in 2.5 mi Calm Calm - N/A   Smoke
1:10 AM 71.6 °F 51.8 °F 50% 29.89 in 2.5 mi Calm Calm - N/A   Smoke
1:40 AM 71.6 °F 51.8 °F 50% 29.86 in 2.5 mi NNE 3.5 mph - N/A   Smoke
2:10 AM 71.6 °F 51.8 °F 50% 29.86 in 2.5 mi NE 3.5 mph - N/A   Smoke
2:30 AM 69 °F 54 °F 50% 29.90 in 2 mi WNW 2.3 mph - -   Haze
2:40 AM 69.8 °F 51.8 °F 53% 29.86 in 2.5 mi NE 3.5 mph - N/A   Smoke
3:10 AM 69.8 °F 48.2 °F 46% 29.86 in 2.5 mi Variable 2.3 mph - N/A   Smoke
3:40 AM 69.8 °F 48.2 °F 46% 29.86 in 2.5 mi Variable 2.3 mph - N/A   Smoke
4:10 AM 71.6 °F 46.4 °F 41% 29.86 in 2.5 mi Variable 2.3 mph - N/A   Smoke
4:40 AM 71.6 °F 44.6 °F 38% 29.86 in 2.5 mi Variable 2.3 mph - N/A   Smoke
5:10 AM 71.6 °F 42.8 °F 35% 29.86 in 2.5 mi Calm Calm - N/A   Smoke
5:30 AM 75 °F 45 °F 24% 29.89 in 2 mi WNW 3.5 mph - -   Smoke
5:40 AM 68.0 °F 46.4 °F 46% 29.86 in 2.5 mi Calm Calm - N/A   Smoke
6:10 AM 66.2 °F 44.6 °F 46% 29.86 in 2.5 mi Variable 2.3 mph - N/A   Smoke
6:40 AM 64.4 °F 46.4 °F 52% 29.89 in 1.2 mi Calm Calm - N/A   Haze
7:40 AM 68.0 °F 42.8 °F 40% 29.92 in 1.1 mi ESE 2.3 mph - N/A   Haze
8:10 AM 73.4 °F 46.4 °F 38% 29.92 in 1.0 mi Variable 2.3 mph - N/A   Smoke
8:30 AM 77 °F 47 °F 24% 29.95 in 2 mi East 2.3 mph - -  
8:40 AM 75.2 °F 46.4 °F 36% 29.95 in 1.1 mi Variable 2.3 mph - N/A   Smoke
9:10 AM 78.8 °F 46.4 °F 32% 29.92 in 1.6 mi NNW 2.3 mph - N/A   Smoke
10:10 AM 86.0 °F 46.4 °F 25% 29.92 in 2.2 mi NNW 3.5 mph - N/A   Smoke
10:40 AM 87.8 °F 44.6 °F 22% 29.92 in 2.5 mi NNW 3.5 mph - N/A   Smoke
11:30 AM 91 °F 39 °F 8% 29.95 in 2 mi NW 9.2 mph - -  
12:10 PM 93.2 °F 37.4 °F 14% 29.89 in 3.1 mi North 9.2 mph - N/A   Smoke
12:40 PM 95.0 °F 39.2 °F 14% 29.89 in 3.1 mi NW 6.9 mph - N/A   Smoke
1:10 PM 96.8 °F 35.6 °F 12% 29.86 in 3.7 mi NNW 6.9 mph - N/A   Unknown
1:40 PM 96.8 °F 33.8 °F 11% 29.83 in 3.7 mi NW 6.9 mph - N/A   Unknown
2:10 PM 96.8 °F 33.8 °F 11% 29.83 in 5.0 mi West 6.9 mph - N/A   Unknown
2:30 PM 95 °F 36 °F 6% 29.85 in 2 mi NW 4.6 mph - -  
2:40 PM 98.6 °F 35.6 °F 11% 29.80 in 5.0 mi WNW 10.4 mph - N/A   Unknown
3:10 PM 98.6 °F 35.6 °F 11% 29.80 in 5.0 mi NW 8.1 mph - N/A   Unknown
3:40 PM 98.6 °F 35.6 °F 11% 29.77 in 5.0 mi WNW 6.9 mph - N/A   Unknown
4:10 PM 98.6 °F 35.6 °F 11% 29.74 in 5.0 mi WNW 6.9 mph - N/A   Unknown
4:40 PM 100.4 °F 37.4 °F 11% 29.74 in 5.0 mi NW 5.8 mph - N/A   Unknown
5:10 PM 100.4 °F 35.6 °F 11% 29.74 in 5.0 mi WNW 4.6 mph - N/A   Unknown
5:30 PM 96 °F 44 °F 9% 29.79 in 2 mi NW 4.6 mph - -  
6:40 PM 93.2 °F 41.0 °F 16% 29.74 in 2.5 mi NNW 2.3 mph - N/A   Smoke
7:10 PM 89.6 °F 41.0 °F 18% 29.74 in 2.5 mi Variable 2.3 mph - N/A   Smoke
7:40 PM 87.8 °F 41.0 °F 19% 29.77 in 2.5 mi Variable 2.3 mph - N/A   Smoke
8:10 PM 87.8 °F 41.0 °F 19% 29.77 in 2.5 mi South 2.3 mph - N/A   Smoke
8:30 PM 78 °F 50 °F 27% 29.82 in 2 mi Calm Calm - -  
8:40 PM 80.6 °F 44.6 °F 28% 29.80 in 2.5 mi Variable 2.3 mph - N/A   Smoke
9:10 PM 78.8 °F 46.4 °F 32% 29.80 in 2.5 mi Variable 2.3 mph - N/A   Smoke
9:40 PM 77.0 °F 46.4 °F 34% 29.80 in 2.5 mi Variable 2.3 mph - N/A   Smoke
10:10 PM 77.0 °F 46.4 °F 34% 29.80 in 2.5 mi Variable 2.3 mph - N/A   Smoke
10:40 PM 75.2 °F 44.6 °F 34% 29.83 in 2.2 mi Variable 2.3 mph - N/A   Smoke
11:30 PM 71 °F 51 °F 39% 29.86 in 2 mi South 3.5 mph - -  
11:40 PM 77.0 °F 39.2 °F 26% 29.83 in 2.5 mi SW 6.9 mph - N/A   Smoke